Time,TemperatureF,DewpointF,PressureIn,WindDirection,WindDirectionDegrees,WindSpeedMPH,WindSpeedGustMPH,Humidity,HourlyPrecipIn,Conditions,Clouds,dailyrainin,SoftwareType,DateUTC
2013-08-01 00:03:00,64.8,60.8,29.99,NW,311,0.0,0.0,87,0.00,,,0.00,Wunderground v.1.15,2013-08-01 05:03:00,
2013-08-01 00:09:00,64.7,60.7,29.99,NW,311,0.0,0.0,87,0.00,,,0.00,Wunderground v.1.15,2013-08-01 05:09:00,
2013-08-01 00:14:00,64.6,61.0,29.99,NW,311,0.0,0.0,88,0.00,,,0.00,Wunderground v.1.15,2013-08-01 05:14:00,
2013-08-01 00:19:00,64.6,61.0,29.99,NW,311,0.0,0.0,88,0.00,,,0.00,Wunderground v.1.15,2013-08-01 05:19:00,
2013-08-01 00:24:00,64.7,61.1,29.99,NW,311,0.0,0.0,88,0.00,,,0.00,Wunderground v.1.15,2013-08-01 05:24:00,
2013-08-01 00:29:00,64.8,61.2,29.99,NW,311,0.0,0.0,88,0.00,,,0.00,Wunderground v.1.15,2013-08-01 05:29:00,
2013-08-01 00:35:00,64.8,61.2,29.99,NW,311,0.0,0.0,88,0.00,,,0.00,Wunderground v.1.15,2013-08-01 05:35:00,
2013-08-01 00:40:00,64.9,60.9,29.99,NW,311,0.0,0.0,87,0.00,,,0.00,Wunderground v.1.15,2013-08-01 05:40:00,
2013-08-01 00:45:00,64.9,60.9,29.99,NW,311,0.0,0.0,87,0.00,,,0.00,Wunderground v.1.15,2013-08-01 05:45:00,
2013-08-01 00:50:00,65.0,61.0,29.98,NW,311,0.0,0.0,87,0.00,,,0.00,Wunderground v.1.15,2013-08-01 05:50:00,
2013-08-01 00:55:00,64.9,60.6,29.98,NW,311,0.0,0.0,86,0.00,,,0.00,Wunderground v.1.15,2013-08-01 05:55:00,
2013-08-01 01:01:00,64.7,60.4,29.98,NW,311,0.0,0.0,86,0.00,,,0.00,Wunderground v.1.15,2013-08-01 06:01:00,
2013-08-01 01:06:00,64.6,60.3,29.99,NW,311,0.0,0.0,86,0.00,,,0.00,Wunderground v.1.15,2013-08-01 06:06:00,
2013-08-01 01:11:00,64.6,60.3,29.99,NW,311,0.0,0.0,86,0.00,,,0.00,Wunderground v.1.15,2013-08-01 06:11:00,
2013-08-01 01:16:00,64.6,60.3,29.98,NW,311,0.0,0.0,86,0.00,,,0.00,Wunderground v.1.15,2013-08-01 06:16:00,
2013-08-01 01:21:00,64.7,60.4,29.98,NW,311,0.0,0.0,86,0.00,,,0.00,Wunderground v.1.15,2013-08-01 06:21:00,
2013-08-01 01:26:00,64.8,60.5,29.98,NW,311,0.0,0.0,86,0.00,,,0.00,Wunderground v.1.15,2013-08-01 06:26:00,
2013-08-01 01:32:00,64.8,60.5,29.99,NW,311,0.0,0.0,86,0.00,,,0.00,Wunderground v.1.15,2013-08-01 06:32:00,
2013-08-01 01:37:00,64.8,60.2,29.99,NW,311,0.0,0.0,85,0.00,,,0.00,Wunderground v.1.15,2013-08-01 06:37:00,
2013-08-01 01:42:00,64.9,60.3,29.98,NW,311,0.0,0.0,85,0.00,,,0.00,Wunderground v.1.15,2013-08-01 06:42:00,
2013-08-01 01:47:00,64.9,60.3,29.99,NW,311,0.0,0.0,85,0.00,,,0.00,Wunderground v.1.15,2013-08-01 06:47:00,
2013-08-01 01:53:00,64.7,60.1,29.99,NW,311,0.0,0.0,85,0.00,,,0.00,Wunderground v.1.15,2013-08-01 06:53:00,
2013-08-01 01:59:00,64.2,59.6,29.99,NW,311,0.0,0.0,85,0.00,,,0.00,Wunderground v.1.15,2013-08-01 06:59:00,
2013-08-01 02:04:00,64.0,59.7,29.98,NW,311,0.0,0.0,86,0.00,,,0.00,Wunderground v.1.15,2013-08-01 07:04:00,
2013-08-01 02:09:00,63.9,59.6,29.98,NW,311,0.0,0.0,86,0.00,,,0.00,Wunderground v.1.15,2013-08-01 07:09:00,
2013-08-01 02:14:00,64.1,59.8,29.98,NW,311,0.0,0.0,86,0.00,,,0.00,Wunderground v.1.15,2013-08-01 07:14:00,
2013-08-01 02:19:00,64.1,59.8,29.98,NW,311,0.0,0.0,86,0.00,,,0.00,Wunderground v.1.15,2013-08-01 07:19:00,
2013-08-01 02:24:00,64.0,59.7,29.98,NW,311,0.0,0.0,86,0.00,,,0.00,Wunderground v.1.15,2013-08-01 07:24:00,
2013-08-01 02:29:00,63.9,59.6,29.98,NW,311,0.0,0.0,86,0.00,,,0.00,Wunderground v.1.15,2013-08-01 07:29:00,
2013-08-01 02:34:00,63.8,59.5,29.98,NW,311,0.0,0.0,86,0.00,,,0.00,Wunderground v.1.15,2013-08-01 07:34:00,
2013-08-01 02:39:00,63.6,59.3,29.98,NW,311,0.0,0.0,86,0.00,,,0.00,Wunderground v.1.15,2013-08-01 07:39:00,
2013-08-01 02:44:00,63.5,59.2,29.98,NW,311,0.0,0.0,86,0.00,,,0.00,Wunderground v.1.15,2013-08-01 07:44:00,
2013-08-01 02:49:00,63.4,59.5,29.98,NW,311,0.0,0.0,87,0.00,,,0.00,Wunderground v.1.15,2013-08-01 07:49:00,
2013-08-01 02:54:00,63.3,59.0,29.98,NW,311,0.0,0.0,86,0.00,,,0.00,Wunderground v.1.15,2013-08-01 07:54:00,
2013-08-01 02:59:00,63.2,59.3,29.98,NW,311,0.0,0.0,87,0.00,,,0.00,Wunderground v.1.15,2013-08-01 07:59:00,
2013-08-01 03:05:00,63.0,59.1,29.97,NW,311,0.0,0.0,87,0.00,,,0.00,Wunderground v.1.15,2013-08-01 08:05:00,
2013-08-01 03:11:00,62.9,59.0,29.98,NW,311,0.0,0.0,87,0.00,,,0.00,Wunderground v.1.15,2013-08-01 08:11:00,
2013-08-01 03:16:00,62.7,58.8,29.98,NW,311,0.0,0.0,87,0.00,,,0.00,Wunderground v.1.15,2013-08-01 08:16:00,
2013-08-01 03:21:00,62.5,58.6,29.97,NW,311,0.0,0.0,87,0.00,,,0.00,Wunderground v.1.15,2013-08-01 08:21:00,
2013-08-01 03:26:00,62.3,58.4,29.98,NW,311,0.0,0.0,87,0.00,,,0.00,Wunderground v.1.15,2013-08-01 08:26:00,
2013-08-01 03:31:00,62.1,58.5,29.98,NW,311,0.0,0.0,88,0.00,,,0.00,Wunderground v.1.15,2013-08-01 08:31:00,
2013-08-01 03:37:00,62.2,58.6,29.98,NW,311,0.0,0.0,88,0.00,,,0.00,Wunderground v.1.15,2013-08-01 08:37:00,
2013-08-01 03:42:00,62.3,58.7,29.98,NW,311,0.0,0.0,88,0.00,,,0.00,Wunderground v.1.15,2013-08-01 08:42:00,
2013-08-01 03:47:00,62.1,58.5,29.97,NW,311,0.0,0.0,88,0.00,,,0.00,Wunderground v.1.15,2013-08-01 08:47:00,
2013-08-01 03:52:00,62.1,58.5,29.98,NW,311,0.0,0.0,88,0.00,,,0.00,Wunderground v.1.15,2013-08-01 08:52:00,
2013-08-01 03:57:00,61.6,57.7,29.98,NW,311,0.0,0.0,87,0.00,,,0.00,Wunderground v.1.15,2013-08-01 08:57:00,
2013-08-01 04:03:00,61.4,57.8,29.97,NW,311,0.0,0.0,88,0.00,,,0.00,Wunderground v.1.15,2013-08-01 09:03:00,
2013-08-01 04:09:00,61.4,57.8,29.98,NW,311,0.0,0.0,88,0.00,,,0.00,Wunderground v.1.15,2013-08-01 09:09:00,
2013-08-01 04:15:00,61.3,58.0,29.98,NW,311,0.0,0.0,89,0.00,,,0.00,Wunderground v.1.15,2013-08-01 09:15:00,
2013-08-01 04:20:00,61.2,57.9,29.98,NW,311,0.0,0.0,89,0.00,,,0.00,Wunderground v.1.15,2013-08-01 09:20:00,
2013-08-01 04:26:00,61.0,57.7,29.97,NW,311,0.0,0.0,89,0.00,,,0.00,Wunderground v.1.15,2013-08-01 09:26:00,
2013-08-01 04:31:00,60.8,57.5,29.97,NW,311,0.0,0.0,89,0.00,,,0.00,Wunderground v.1.15,2013-08-01 09:31:00,
2013-08-01 04:37:00,60.7,57.4,29.98,NW,311,0.0,0.0,89,0.00,,,0.00,Wunderground v.1.15,2013-08-01 09:37:00,
2013-08-01 04:42:00,60.4,57.1,29.98,NW,311,0.0,0.0,89,0.00,,,0.00,Wunderground v.1.15,2013-08-01 09:42:00,
2013-08-01 04:47:00,60.2,56.9,29.98,NW,311,0.0,0.0,89,0.00,,,0.00,Wunderground v.1.15,2013-08-01 09:47:00,
2013-08-01 04:53:00,59.8,56.2,29.98,NW,311,0.0,0.0,88,0.00,,,0.00,Wunderground v.1.15,2013-08-01 09:53:00,
2013-08-01 04:58:00,59.2,56.0,29.98,NW,311,0.0,0.0,89,0.00,,,0.00,Wunderground v.1.15,2013-08-01 09:58:00,
2013-08-01 05:04:00,59.0,55.8,29.98,NW,311,0.0,0.0,89,0.00,,,0.00,Wunderground v.1.15,2013-08-01 10:04:00,
2013-08-01 05:09:00,59.0,56.1,29.98,NW,311,0.0,0.0,90,0.00,,,0.00,Wunderground v.1.15,2013-08-01 10:09:00,
2013-08-01 05:14:00,59.3,56.7,29.98,NW,311,0.0,0.0,91,0.00,,,0.00,Wunderground v.1.15,2013-08-01 10:14:00,
2013-08-01 05:19:00,59.5,56.9,29.98,NW,311,0.0,0.0,91,0.00,,,0.00,Wunderground v.1.15,2013-08-01 10:19:00,
2013-08-01 05:24:00,59.7,57.1,29.98,NW,311,0.0,0.0,91,0.00,,,0.00,Wunderground v.1.15,2013-08-01 10:24:00,
2013-08-01 05:29:00,59.9,57.3,29.98,NW,311,0.0,0.0,91,0.00,,,0.00,Wunderground v.1.15,2013-08-01 10:29:00,
2013-08-01 05:34:00,59.9,57.3,29.99,NW,311,0.0,0.0,91,0.00,,,0.00,Wunderground v.1.15,2013-08-01 10:34:00,
2013-08-01 05:39:00,59.9,57.3,29.98,NW,311,0.0,0.0,91,0.00,,,0.00,Wunderground v.1.15,2013-08-01 10:39:00,
2013-08-01 05:45:00,59.8,57.2,29.99,NW,311,0.0,0.0,91,0.00,,,0.00,Wunderground v.1.15,2013-08-01 10:45:00,
2013-08-01 05:50:00,59.7,57.1,29.99,NW,311,0.0,0.0,91,0.00,,,0.00,Wunderground v.1.15,2013-08-01 10:50:00,
2013-08-01 05:56:00,59.8,57.2,29.99,NW,311,0.0,0.0,91,0.00,,,0.00,Wunderground v.1.15,2013-08-01 10:56:00,
2013-08-01 06:01:00,59.8,57.2,29.99,NW,311,0.0,0.0,91,0.00,,,0.00,Wunderground v.1.15,2013-08-01 11:01:00,
2013-08-01 06:07:00,59.8,57.2,29.99,NW,311,0.0,0.0,91,0.00,,,0.00,Wunderground v.1.15,2013-08-01 11:07:00,
2013-08-01 06:12:00,59.8,57.2,29.99,NW,311,0.0,0.0,91,0.00,,,0.00,Wunderground v.1.15,2013-08-01 11:12:00,
2013-08-01 06:17:00,59.8,57.2,29.99,NW,311,0.0,0.0,91,0.00,,,0.00,Wunderground v.1.15,2013-08-01 11:17:00,
2013-08-01 06:23:00,59.7,56.8,29.99,NW,311,0.0,0.0,90,0.00,,,0.00,Wunderground v.1.15,2013-08-01 11:23:00,
2013-08-01 06:28:00,59.4,56.5,29.99,NW,311,0.0,0.0,90,0.00,,,0.00,Wunderground v.1.15,2013-08-01 11:28:00,
2013-08-01 06:33:00,59.3,56.7,30.00,NW,311,0.0,0.0,91,0.00,,,0.00,Wunderground v.1.15,2013-08-01 11:33:00,
2013-08-01 06:38:00,59.4,56.8,30.00,NW,310,0.0,0.0,91,0.00,,,0.00,Wunderground v.1.15,2013-08-01 11:38:00,
2013-08-01 06:43:00,59.6,57.3,30.00,NW,312,0.0,0.0,92,0.00,,,0.00,Wunderground v.1.15,2013-08-01 11:43:00,
2013-08-01 06:48:00,59.7,57.1,30.00,NW,306,0.0,0.0,91,0.00,,,0.00,Wunderground v.1.15,2013-08-01 11:48:00,
2013-08-01 06:53:00,59.8,57.2,30.00,NW,306,0.0,0.0,91,0.00,,,0.00,Wunderground v.1.15,2013-08-01 11:53:00,
2013-08-01 06:59:00,59.9,57.6,30.00,NW,306,0.0,0.0,92,0.00,,,0.00,Wunderground v.1.15,2013-08-01 11:59:00,
2013-08-01 07:04:00,60.1,57.8,30.00,NW,306,0.0,0.0,92,0.00,,,0.00,Wunderground v.1.15,2013-08-01 12:04:00,
2013-08-01 07:10:00,60.6,58.3,30.00,NW,306,0.0,0.0,92,0.00,,,0.00,Wunderground v.1.15,2013-08-01 12:10:00,
2013-08-01 07:15:00,61.1,59.1,30.00,NW,306,0.0,0.0,93,0.00,,,0.00,Wunderground v.1.15,2013-08-01 12:15:00,
2013-08-01 07:20:00,61.4,59.1,30.00,NW,306,0.0,0.0,92,0.00,,,0.00,Wunderground v.1.15,2013-08-01 12:20:00,
2013-08-01 07:25:00,61.7,59.4,30.00,NW,306,0.0,0.0,92,0.00,,,0.00,Wunderground v.1.15,2013-08-01 12:25:00,
2013-08-01 07:30:00,62.0,59.6,30.00,NW,306,0.0,0.0,92,0.00,,,0.00,Wunderground v.1.15,2013-08-01 12:30:00,
2013-08-01 07:35:00,62.2,59.8,30.00,NW,306,0.0,0.0,92,0.00,,,0.00,Wunderground v.1.15,2013-08-01 12:35:00,
2013-08-01 07:40:00,62.2,59.8,30.01,NW,306,0.0,0.0,92,0.00,,,0.00,Wunderground v.1.15,2013-08-01 12:40:00,
2013-08-01 07:45:00,62.4,60.0,30.01,NW,306,0.0,0.0,92,0.00,,,0.00,Wunderground v.1.15,2013-08-01 12:45:00,
2013-08-01 07:51:00,62.7,60.3,30.01,NW,306,0.0,0.0,92,0.00,,,0.00,Wunderground v.1.15,2013-08-01 12:51:00,
2013-08-01 07:56:00,63.1,60.7,30.01,NW,306,0.0,0.0,92,0.00,,,0.00,Wunderground v.1.15,2013-08-01 12:56:00,
2013-08-01 08:02:00,63.6,61.2,30.01,NW,306,0.0,0.0,92,0.00,,,0.00,Wunderground v.1.15,2013-08-01 13:02:00,
2013-08-01 08:08:00,64.3,61.9,30.01,NW,306,0.0,0.0,92,0.00,,,0.00,Wunderground v.1.15,2013-08-01 13:08:00,
2013-08-01 08:13:00,64.7,61.7,30.01,NW,306,0.0,0.0,90,0.00,,,0.00,Wunderground v.1.15,2013-08-01 13:13:00,
2013-08-01 08:18:00,65.1,62.1,30.01,WNW,300,0.0,0.0,90,0.00,,,0.00,Wunderground v.1.15,2013-08-01 13:18:00,
2013-08-01 08:23:00,65.7,62.7,30.01,WNW,300,0.0,0.0,90,0.00,,,0.00,Wunderground v.1.15,2013-08-01 13:23:00,
2013-08-01 08:28:00,66.2,62.9,30.01,North,360,0.0,0.0,89,0.00,,,0.00,Wunderground v.1.15,2013-08-01 13:28:00,
2013-08-01 08:33:00,66.8,63.5,30.01,SW,234,0.0,0.0,89,0.00,,,0.00,Wunderground v.1.15,2013-08-01 13:33:00,
2013-08-01 08:38:00,67.3,63.6,30.01,SW,234,0.0,0.0,88,0.00,,,0.00,Wunderground v.1.15,2013-08-01 13:38:00,
2013-08-01 08:43:00,67.8,63.1,30.01,WSW,240,0.0,0.0,85,0.00,,,0.00,Wunderground v.1.15,2013-08-01 13:43:00,
2013-08-01 08:48:00,68.3,63.3,30.01,WSW,240,0.0,0.0,84,0.00,,,0.00,Wunderground v.1.15,2013-08-01 13:48:00,
2013-08-01 08:53:00,68.6,61.5,30.01,WSW,240,0.0,0.0,78,0.00,,,0.00,Wunderground v.1.15,2013-08-01 13:53:00,
2013-08-01 08:59:00,69.2,61.3,30.01,WSW,240,0.0,0.0,76,0.00,,,0.00,Wunderground v.1.15,2013-08-01 13:59:00,
2013-08-01 09:05:00,69.7,61.4,30.01,WSW,240,0.0,0.0,75,0.00,,,0.00,Wunderground v.1.15,2013-08-01 14:05:00,
2013-08-01 09:11:00,70.1,61.8,30.01,WSW,240,0.0,0.0,75,0.00,,,0.00,Wunderground v.1.15,2013-08-01 14:11:00,
2013-08-01 09:17:00,70.4,61.7,30.01,WSW,246,0.0,0.0,74,0.00,,,0.00,Wunderground v.1.15,2013-08-01 14:17:00,
2013-08-01 09:23:00,70.8,62.1,30.01,WSW,246,0.0,0.0,74,0.00,,,0.00,Wunderground v.1.15,2013-08-01 14:23:00,
2013-08-01 09:28:00,71.3,62.2,30.01,WSW,246,0.0,0.0,73,0.00,,,0.00,Wunderground v.1.15,2013-08-01 14:28:00,
2013-08-01 09:33:00,71.6,60.9,30.01,WSW,246,0.0,0.0,69,0.00,,,0.00,Wunderground v.1.15,2013-08-01 14:33:00,
2013-08-01 09:38:00,72.2,60.6,30.01,WSW,258,0.0,0.0,67,0.00,,,0.00,Wunderground v.1.15,2013-08-01 14:38:00,
2013-08-01 09:44:00,72.6,59.7,30.01,West,273,3.0,3.0,64,0.00,,,0.00,Wunderground v.1.15,2013-08-01 14:44:00,
2013-08-01 09:49:00,72.7,60.3,30.01,WNW,285,3.0,4.0,65,0.00,,,0.00,Wunderground v.1.15,2013-08-01 14:49:00,
2013-08-01 09:54:00,72.9,60.0,30.01,WNW,293,0.0,6.0,64,0.00,,,0.00,Wunderground v.1.15,2013-08-01 14:54:00,
2013-08-01 10:00:00,73.3,60.8,30.01,NW,304,6.0,6.0,65,0.00,,,0.00,Wunderground v.1.15,2013-08-01 15:00:00,
2013-08-01 10:05:00,73.5,59.7,30.01,NNW,329,0.0,6.0,62,0.00,,,0.00,Wunderground v.1.15,2013-08-01 15:05:00,
2013-08-01 10:10:00,73.8,60.9,30.01,NNW,330,6.0,6.0,64,0.00,,,0.00,Wunderground v.1.15,2013-08-01 15:10:00,
2013-08-01 10:15:00,73.8,59.5,30.00,NNW,332,0.0,7.0,61,0.00,,,0.00,Wunderground v.1.15,2013-08-01 15:15:00,
2013-08-01 10:20:00,74.0,61.0,30.01,NNW,333,0.0,4.0,64,0.00,,,0.00,Wunderground v.1.15,2013-08-01 15:20:00,
2013-08-01 10:25:00,74.0,60.6,30.01,NNW,333,0.0,6.0,63,0.00,,,0.00,Wunderground v.1.15,2013-08-01 15:25:00,
2013-08-01 10:31:00,74.2,59.9,30.01,NNW,333,4.0,4.0,61,0.00,,,0.00,Wunderground v.1.15,2013-08-01 15:31:00,
2013-08-01 10:37:00,74.2,60.3,30.01,NNW,333,0.0,5.0,62,0.00,,,0.00,Wunderground v.1.15,2013-08-01 15:37:00,
2013-08-01 10:42:00,74.4,59.6,30.01,NNW,333,3.0,5.0,60,0.00,,,0.00,Wunderground v.1.15,2013-08-01 15:42:00,
2013-08-01 10:47:00,74.6,60.7,30.01,NW,321,0.0,5.0,62,0.00,,,0.00,Wunderground v.1.15,2013-08-01 15:47:00,
2013-08-01 10:52:00,74.8,61.4,30.00,NW,323,1.0,2.0,63,0.00,,,0.00,Wunderground v.1.15,2013-08-01 15:52:00,
2013-08-01 10:57:00,75.0,61.1,30.00,NW,323,0.0,4.0,62,0.00,,,0.00,Wunderground v.1.15,2013-08-01 15:57:00,
2013-08-01 11:03:00,75.0,60.2,30.00,NW,323,0.0,3.0,60,0.00,,,0.00,Wunderground v.1.15,2013-08-01 16:03:00,
2013-08-01 11:08:00,75.0,59.2,30.00,NW,323,0.0,3.0,58,0.00,,,0.00,Wunderground v.1.15,2013-08-01 16:08:00,
2013-08-01 11:13:00,75.3,60.0,30.00,NW,323,0.0,3.0,59,0.00,,,0.00,Wunderground v.1.15,2013-08-01 16:13:00,
2013-08-01 11:18:00,75.5,58.7,30.00,NW,323,0.0,3.0,56,0.00,,,0.00,Wunderground v.1.15,2013-08-01 16:18:00,
2013-08-01 11:24:00,76.0,58.2,30.00,NW,324,0.0,3.0,54,0.00,,,0.00,Wunderground v.1.15,2013-08-01 16:24:00,
2013-08-01 11:29:00,76.2,57.8,30.00,NW,324,0.0,4.0,53,0.00,,,0.00,Wunderground v.1.15,2013-08-01 16:29:00,
2013-08-01 11:34:00,76.4,59.5,30.00,NW,324,1.0,5.0,56,0.00,,,0.00,Wunderground v.1.15,2013-08-01 16:34:00,
2013-08-01 11:39:00,76.6,59.2,30.00,NNW,327,0.0,5.0,55,0.00,,,0.00,Wunderground v.1.15,2013-08-01 16:39:00,
2013-08-01 11:44:00,76.8,59.4,30.00,NNW,327,4.0,4.0,55,0.00,,,0.00,Wunderground v.1.15,2013-08-01 16:44:00,
2013-08-01 11:50:00,77.1,60.2,30.00,NNW,328,0.0,1.0,56,0.00,,,0.00,Wunderground v.1.15,2013-08-01 16:50:00,
2013-08-01 11:55:00,77.0,61.1,30.00,NNW,328,0.0,5.0,58,0.00,,,0.00,Wunderground v.1.15,2013-08-01 16:55:00,
2013-08-01 12:01:00,77.1,59.7,30.00,NW,321,0.0,2.0,55,0.00,,,0.00,Wunderground v.1.15,2013-08-01 17:01:00,
2013-08-01 12:07:00,77.1,60.2,30.00,NW,321,2.0,4.0,56,0.00,,,0.00,Wunderground v.1.15,2013-08-01 17:07:00,
2013-08-01 12:12:00,77.1,57.6,30.00,NNW,331,0.0,2.0,51,0.00,,,0.00,Wunderground v.1.15,2013-08-01 17:12:00,
2013-08-01 12:18:00,77.5,61.6,30.00,NNW,331,0.0,5.0,58,0.00,,,0.00,Wunderground v.1.15,2013-08-01 17:18:00,
2013-08-01 12:23:00,77.6,61.2,30.00,NW,322,4.0,4.0,57,0.00,,,0.00,Wunderground v.1.15,2013-08-01 17:23:00,
2013-08-01 12:30:00,77.5,59.5,30.00,NW,322,0.0,1.0,54,0.00,,,0.00,Wunderground v.1.15,2013-08-01 17:30:00,
2013-08-01 12:35:00,77.5,57.9,30.00,NW,325,0.0,4.0,51,0.00,,,0.00,Wunderground v.1.15,2013-08-01 17:35:00,
2013-08-01 12:40:00,77.8,59.3,29.99,NW,325,0.0,1.0,53,0.00,,,0.00,Wunderground v.1.15,2013-08-01 17:40:00,
2013-08-01 12:46:00,78.1,60.1,29.99,NW,325,0.0,1.0,54,0.00,,,0.00,Wunderground v.1.15,2013-08-01 17:46:00,
2013-08-01 12:51:00,78.4,58.8,29.99,NW,325,0.0,0.0,51,0.00,,,0.00,Wunderground v.1.15,2013-08-01 17:51:00,
2013-08-01 12:57:00,78.7,60.7,29.99,NW,323,0.0,2.0,54,0.00,,,0.00,Wunderground v.1.15,2013-08-01 17:57:00,
2013-08-01 13:02:00,78.7,59.6,29.98,NW,323,1.0,3.0,52,0.00,,,0.00,Wunderground v.1.15,2013-08-01 18:02:00,
2013-08-01 13:07:00,78.7,59.0,29.98,NW,313,0.0,5.0,51,0.00,,,0.00,Wunderground v.1.15,2013-08-01 18:07:00,
2013-08-01 13:14:00,78.5,60.5,29.98,NW,313,0.0,3.0,54,0.00,,,0.00,Wunderground v.1.15,2013-08-01 18:14:00,
2013-08-01 13:20:00,78.5,59.9,29.98,NW,313,0.0,1.0,53,0.00,,,0.00,Wunderground v.1.15,2013-08-01 18:20:00,
2013-08-01 13:25:00,78.9,60.8,29.98,WNW,300,2.0,6.0,54,0.00,,,0.00,Wunderground v.1.15,2013-08-01 18:25:00,
2013-08-01 13:31:00,79.4,60.2,29.98,WNW,290,0.0,1.0,52,0.00,,,0.00,Wunderground v.1.15,2013-08-01 18:31:00,
2013-08-01 13:37:00,79.8,61.7,29.98,WNW,282,8.0,8.0,54,0.00,,,0.00,Wunderground v.1.15,2013-08-01 18:37:00,
2013-08-01 13:43:00,79.9,61.2,29.97,West,275,0.0,5.0,53,0.00,,,0.00,Wunderground v.1.15,2013-08-01 18:43:00,
2013-08-01 13:49:00,80.4,61.2,29.97,SW,227,5.0,10.0,52,0.00,,,0.00,Wunderground v.1.15,2013-08-01 18:49:00,
2013-08-01 13:54:00,80.6,60.2,29.97,WSW,237,0.0,4.0,50,0.00,,,0.00,Wunderground v.1.15,2013-08-01 18:54:00,
2013-08-01 14:00:00,80.7,62.0,29.97,WSW,238,0.0,1.0,53,0.00,,,0.00,Wunderground v.1.15,2013-08-01 19:00:00,
2013-08-01 14:05:00,80.7,60.9,29.97,WSW,238,4.0,6.0,51,0.00,,,0.00,Wunderground v.1.15,2013-08-01 19:05:00,
2013-08-01 14:10:00,80.7,62.5,29.97,WSW,238,0.0,1.0,54,0.00,,,0.00,Wunderground v.1.15,2013-08-01 19:10:00,
2013-08-01 14:16:00,81.3,61.4,29.97,SW,227,0.0,4.0,51,0.00,,,0.00,Wunderground v.1.15,2013-08-01 19:16:00,
2013-08-01 14:21:00,81.5,62.2,29.96,SSW,212,2.0,5.0,52,0.00,,,0.00,Wunderground v.1.15,2013-08-01 19:21:00,
2013-08-01 14:27:00,81.6,60.6,29.96,SW,219,0.0,5.0,49,0.00,,,0.00,Wunderground v.1.15,2013-08-01 19:27:00,
2013-08-01 14:32:00,81.5,61.6,29.96,SW,235,6.0,6.0,51,0.00,,,0.00,Wunderground v.1.15,2013-08-01 19:32:00,
2013-08-01 14:37:00,81.1,63.4,29.96,SW,236,2.0,6.0,55,0.00,,,0.00,Wunderground v.1.15,2013-08-01 19:37:00,
2013-08-01 14:43:00,80.8,60.4,29.95,SW,236,0.0,4.0,50,0.00,,,0.00,Wunderground v.1.15,2013-08-01 19:43:00,
2013-08-01 14:49:00,81.5,61.1,29.96,SW,236,2.0,5.0,50,0.00,,,0.00,Wunderground v.1.15,2013-08-01 19:49:00,
2013-08-01 14:55:00,81.7,62.4,29.95,WSW,237,4.0,5.0,52,0.00,,,0.00,Wunderground v.1.15,2013-08-01 19:55:00,
2013-08-01 15:00:00,81.4,62.6,29.95,WSW,237,5.0,5.0,53,0.00,,,0.00,Wunderground v.1.15,2013-08-01 20:00:00,
2013-08-01 15:05:00,81.1,61.8,29.95,WSW,237,0.0,5.0,52,0.00,,,0.00,Wunderground v.1.15,2013-08-01 20:05:00,
2013-08-01 15:11:00,81.4,61.5,29.95,WSW,237,0.0,1.0,51,0.00,,,0.00,Wunderground v.1.15,2013-08-01 20:11:00,
2013-08-01 15:16:00,82.0,62.6,29.94,WSW,237,0.0,1.0,52,0.00,,,0.00,Wunderground v.1.15,2013-08-01 20:16:00,
2013-08-01 15:22:00,82.2,62.8,29.94,WSW,238,0.0,4.0,52,0.00,,,0.00,Wunderground v.1.15,2013-08-01 20:22:00,
2013-08-01 15:26:00,82.3,62.9,29.94,WSW,238,0.0,4.0,52,0.00,,,0.00,Wunderground v.1.15,2013-08-01 20:26:00,
2013-08-01 15:31:00,82.4,63.0,29.93,WSW,238,0.0,1.0,52,0.00,,,0.00,Wunderground v.1.15,2013-08-01 20:31:00,
2013-08-01 15:36:00,82.3,62.9,29.93,SSW,211,7.0,9.0,52,0.00,,,0.00,Wunderground v.1.15,2013-08-01 20:36:00,
2013-08-01 15:42:00,82.5,62.5,29.93,SSW,209,0.0,6.0,51,0.00,,,0.00,Wunderground v.1.15,2013-08-01 20:42:00,
2013-08-01 15:43:00,82.4,62.5,29.93,SSW,209,0.0,6.0,51,0.00,,,0.00,Wunderground v.1.15,2013-08-01 20:43:00,
2013-08-01 15:48:00,82.5,63.6,29.92,SSW,208,0.0,6.0,53,0.00,,,0.00,Wunderground v.1.15,2013-08-01 20:48:00,
2013-08-01 15:54:00,82.9,63.5,29.92,SSW,207,0.0,6.0,52,0.00,,,0.00,Wunderground v.1.15,2013-08-01 20:54:00,
2013-08-01 15:59:00,82.8,63.9,29.92,SSW,207,3.0,6.0,53,0.00,,,0.00,Wunderground v.1.15,2013-08-01 20:59:00,
2013-08-01 16:04:00,82.9,63.5,29.92,SSW,207,1.0,4.0,52,0.00,,,0.00,Wunderground v.1.15,2013-08-01 21:04:00,
2013-08-01 16:09:00,83.1,64.7,29.92,SSW,208,2.0,5.0,54,0.00,,,0.00,Wunderground v.1.15,2013-08-01 21:09:00,
2013-08-01 16:14:00,83.2,63.7,29.91,SSW,207,0.0,5.0,52,0.00,,,0.00,Wunderground v.1.15,2013-08-01 21:14:00,
2013-08-01 16:19:00,83.5,64.0,29.91,SSW,206,0.0,5.0,52,0.00,,,0.00,Wunderground v.1.15,2013-08-01 21:19:00,
2013-08-01 16:24:00,83.4,64.5,29.91,SSW,207,0.0,4.0,53,0.00,,,0.00,Wunderground v.1.15,2013-08-01 21:24:00,
2013-08-01 16:29:00,83.2,64.3,29.91,SSW,192,5.0,7.0,53,0.00,,,0.00,Wunderground v.1.15,2013-08-01 21:29:00,
2013-08-01 16:34:00,83.3,65.4,29.90,SSW,196,0.0,4.0,55,0.00,,,0.00,Wunderground v.1.15,2013-08-01 21:34:00,
2013-08-01 16:39:00,83.2,63.7,29.90,SSW,196,0.0,7.0,52,0.00,,,0.00,Wunderground v.1.15,2013-08-01 21:39:00,
2013-08-01 16:45:00,83.2,65.4,29.90,SSW,196,0.0,4.0,55,0.00,,,0.00,Wunderground v.1.15,2013-08-01 21:45:00,
2013-08-01 16:50:00,83.4,66.1,29.90,SSW,194,0.0,2.0,56,0.00,,,0.00,Wunderground v.1.15,2013-08-01 21:50:00,
2013-08-01 16:55:00,83.4,65.0,29.90,SSW,207,0.0,6.0,54,0.00,,,0.00,Wunderground v.1.15,2013-08-01 21:55:00,
2013-08-01 17:00:00,83.4,65.0,29.90,SSW,194,3.0,6.0,54,0.00,,,0.00,Wunderground v.1.15,2013-08-01 22:00:00,
2013-08-01 17:05:00,83.4,65.5,29.90,SSW,196,4.0,6.0,55,0.00,,,0.00,Wunderground v.1.15,2013-08-01 22:05:00,
2013-08-01 17:11:00,83.4,64.5,29.90,SSW,207,2.0,3.0,53,0.00,,,0.00,Wunderground v.1.15,2013-08-01 22:11:00,
2013-08-01 17:16:00,83.6,66.8,29.90,SSW,207,0.0,4.0,57,0.00,,,0.00,Wunderground v.1.15,2013-08-01 22:16:00,
2013-08-01 17:21:00,83.7,65.8,29.90,SSW,203,4.0,4.0,55,0.00,,,0.00,Wunderground v.1.15,2013-08-01 22:21:00,
2013-08-01 17:27:00,83.4,64.5,29.90,SSW,198,5.0,10.0,53,0.00,,,0.00,Wunderground v.1.15,2013-08-01 22:27:00,
2013-08-01 17:32:00,82.8,66.0,29.90,SSW,198,0.0,4.0,57,0.00,,,0.00,Wunderground v.1.15,2013-08-01 22:32:00,
2013-08-01 17:37:00,82.5,66.7,29.89,SSW,198,0.0,4.0,59,0.00,,,0.00,Wunderground v.1.15,2013-08-01 22:37:00,
2013-08-01 17:42:00,82.4,66.1,29.89,SSW,198,0.0,0.0,58,0.00,,,0.00,Wunderground v.1.15,2013-08-01 22:42:00,
2013-08-01 17:47:00,82.3,66.5,29.89,SSW,198,0.0,3.0,59,0.00,,,0.00,Wunderground v.1.15,2013-08-01 22:47:00,
2013-08-01 17:53:00,82.0,66.3,29.88,SSW,198,0.0,4.0,59,0.00,,,0.00,Wunderground v.1.15,2013-08-01 22:53:00,
2013-08-01 17:58:00,81.6,66.8,29.88,SSW,198,0.0,4.0,61,0.00,,,0.00,Wunderground v.1.15,2013-08-01 22:58:00,
2013-08-01 18:04:00,81.2,66.5,29.88,SSW,198,0.0,0.0,61,0.00,,,0.00,Wunderground v.1.15,2013-08-01 23:04:00,
2013-08-01 18:09:00,80.7,66.9,29.88,SSW,198,0.0,5.0,63,0.00,,,0.00,Wunderground v.1.15,2013-08-01 23:09:00,
2013-08-01 18:14:00,80.4,67.6,29.88,SSW,198,0.0,1.0,65,0.00,,,0.00,Wunderground v.1.15,2013-08-01 23:14:00,
2013-08-01 18:19:00,79.9,67.1,29.88,SSW,198,0.0,2.0,65,0.00,,,0.00,Wunderground v.1.15,2013-08-01 23:19:00,
2013-08-01 18:24:00,79.5,67.1,29.88,SSW,198,0.0,0.0,66,0.00,,,0.00,Wunderground v.1.15,2013-08-01 23:24:00,
2013-08-01 18:29:00,79.3,67.0,29.88,SSW,198,0.0,0.0,66,0.00,,,0.00,Wunderground v.1.15,2013-08-01 23:29:00,
2013-08-01 18:34:00,79.0,66.7,29.88,SSW,198,0.0,0.0,66,0.00,,,0.00,Wunderground v.1.15,2013-08-01 23:34:00,
2013-08-01 18:39:00,78.7,66.8,29.88,SSW,198,0.0,0.0,67,0.00,,,0.00,Wunderground v.1.15,2013-08-01 23:39:00,
2013-08-01 18:45:00,78.6,67.2,29.88,SSW,198,0.0,2.0,68,0.00,,,0.00,Wunderground v.1.15,2013-08-01 23:45:00,
2013-08-01 18:50:00,78.3,67.3,29.87,SSW,198,2.0,2.0,69,0.00,,,0.00,Wunderground v.1.15,2013-08-01 23:50:00,
2013-08-01 18:56:00,78.0,67.0,29.87,SSW,198,0.0,2.0,69,0.00,,,0.00,Wunderground v.1.15,2013-08-01 23:56:00,
2013-08-01 19:00:00,77.7,67.1,29.87,SSW,198,0.0,0.0,70,0.00,,,0.00,Wunderground v.1.15,2013-08-02 00:00:00,
2013-08-01 19:06:00,77.5,67.4,29.87,SSW,198,0.0,0.0,71,0.00,,,0.00,Wunderground v.1.15,2013-08-02 00:06:00,
2013-08-01 19:11:00,77.4,67.3,29.87,SSW,198,0.0,0.0,71,0.00,,,0.00,Wunderground v.1.15,2013-08-02 00:11:00,
2013-08-01 19:16:00,77.3,67.2,29.87,SSW,198,0.0,0.0,71,0.00,,,0.00,Wunderground v.1.15,2013-08-02 00:16:00,
2013-08-01 19:21:00,77.3,67.2,29.87,SSW,198,0.0,0.0,71,0.00,,,0.00,Wunderground v.1.15,2013-08-02 00:21:00,
2013-08-01 19:26:00,77.1,67.4,29.87,SSW,198,0.0,0.0,72,0.00,,,0.00,Wunderground v.1.15,2013-08-02 00:26:00,
2013-08-01 19:33:00,77.1,66.6,29.88,SSW,198,0.0,0.0,70,0.00,,,0.00,Wunderground v.1.15,2013-08-02 00:33:00,
2013-08-01 19:38:00,77.1,66.1,29.87,SSW,198,0.0,0.0,69,0.00,,,0.00,Wunderground v.1.15,2013-08-02 00:38:00,
2013-08-01 19:43:00,77.3,66.7,29.87,SSW,198,0.0,0.0,70,0.00,,,0.00,Wunderground v.1.15,2013-08-02 00:43:00,
2013-08-01 19:48:00,77.4,67.3,29.88,SSW,198,0.0,0.0,71,0.00,,,0.00,Wunderground v.1.15,2013-08-02 00:48:00,
2013-08-01 19:53:00,77.1,67.8,29.88,SSW,198,0.0,0.0,73,0.00,,,0.00,Wunderground v.1.15,2013-08-02 00:53:00,
2013-08-01 19:58:00,76.6,68.8,29.89,SSW,198,0.0,0.0,77,0.00,,,0.00,Wunderground v.1.15,2013-08-02 00:58:00,
2013-08-01 20:03:00,75.5,68.5,29.90,SSW,198,0.0,3.0,79,0.00,,,0.00,Wunderground v.1.15,2013-08-02 01:03:00,
2013-08-01 20:08:00,73.7,66.4,29.90,West,281,15.0,15.0,78,0.00,,,0.01,Wunderground v.1.15,2013-08-02 01:08:00,
2013-08-01 20:13:00,72.4,65.9,29.90,West,281,14.0,14.0,80,0.07,,,0.01,Wunderground v.1.15,2013-08-02 01:13:00,
2013-08-01 20:18:00,71.0,65.2,29.90,West,261,4.0,20.0,82,0.73,,,0.05,Wunderground v.1.15,2013-08-02 01:18:00,
2013-08-01 20:23:00,70.4,64.6,29.88,West,279,0.0,10.0,82,0.22,,,0.07,Wunderground v.1.15,2013-08-02 01:23:00,
2013-08-01 20:29:00,70.1,65.4,29.88,West,264,0.0,10.0,85,0.09,,,0.07,Wunderground v.1.15,2013-08-02 01:29:00,
2013-08-01 20:34:00,69.9,65.5,29.87,West,264,0.0,1.0,86,0.05,,,0.07,Wunderground v.1.15,2013-08-02 01:34:00,
2013-08-01 20:39:00,69.8,65.4,29.87,SSW,203,4.0,4.0,86,0.05,,,0.08,Wunderground v.1.15,2013-08-02 01:39:00,
2013-08-01 20:44:00,70.4,65.7,29.87,SSW,198,0.0,3.0,85,0.05,,,0.08,Wunderground v.1.15,2013-08-02 01:44:00,
2013-08-01 20:49:00,70.7,65.3,29.87,SSW,197,4.0,5.0,83,0.04,,,0.08,Wunderground v.1.15,2013-08-02 01:49:00,
2013-08-01 20:54:00,71.1,65.3,29.86,SSW,197,0.0,4.0,82,0.00,,,0.08,Wunderground v.1.15,2013-08-02 01:54:00,
2013-08-01 20:59:00,71.2,65.8,29.86,SSW,196,0.0,4.0,83,0.00,,,0.08,Wunderground v.1.15,2013-08-02 01:59:00,
2013-08-01 21:04:00,71.1,66.0,29.85,SSW,196,0.0,0.0,84,0.00,,,0.08,Wunderground v.1.15,2013-08-02 02:04:00,
2013-08-01 21:10:00,70.9,66.2,29.85,SSW,194,0.0,2.0,85,0.00,,,0.08,Wunderground v.1.15,2013-08-02 02:10:00,
2013-08-01 21:15:00,70.7,66.0,29.85,SSW,192,0.0,1.0,85,0.00,,,0.08,Wunderground v.1.15,2013-08-02 02:15:00,
2013-08-01 21:20:00,70.6,66.2,29.85,SSW,192,0.0,0.0,86,0.00,,,0.08,Wunderground v.1.15,2013-08-02 02:20:00,
2013-08-01 21:25:00,70.5,66.1,29.85,SSW,192,0.0,0.0,86,0.00,,,0.08,Wunderground v.1.15,2013-08-02 02:25:00,
2013-08-01 21:30:00,70.5,66.1,29.85,SSW,192,0.0,0.0,86,0.00,,,0.08,Wunderground v.1.15,2013-08-02 02:30:00,
2013-08-01 21:35:00,70.6,65.9,29.85,SSW,192,0.0,2.0,85,0.00,,,0.08,Wunderground v.1.15,2013-08-02 02:35:00,
2013-08-01 21:41:00,70.8,66.1,29.85,SSW,192,1.0,1.0,85,0.00,,,0.08,Wunderground v.1.15,2013-08-02 02:41:00,
2013-08-01 21:46:00,71.1,66.4,29.85,SSW,192,0.0,1.0,85,0.00,,,0.08,Wunderground v.1.15,2013-08-02 02:46:00,
2013-08-01 21:51:00,71.0,65.9,29.86,SSW,192,0.0,0.0,84,0.00,,,0.08,Wunderground v.1.15,2013-08-02 02:51:00,
2013-08-01 21:56:00,71.0,66.3,29.86,SSW,192,0.0,0.0,85,0.00,,,0.08,Wunderground v.1.15,2013-08-02 02:56:00,
2013-08-01 22:02:00,70.9,66.2,29.86,SSW,192,0.0,0.0,85,0.00,,,0.08,Wunderground v.1.15,2013-08-02 03:02:00,
2013-08-01 22:07:00,70.7,66.0,29.86,SSW,192,0.0,0.0,85,0.00,,,0.08,Wunderground v.1.15,2013-08-02 03:07:00,
2013-08-01 22:12:00,70.4,65.7,29.86,SSW,192,0.0,0.0,85,0.00,,,0.08,Wunderground v.1.15,2013-08-02 03:12:00,
2013-08-01 22:17:00,70.2,66.1,29.85,SSW,192,0.0,0.0,87,0.00,,,0.08,Wunderground v.1.15,2013-08-02 03:17:00,
2013-08-01 22:22:00,70.1,66.0,29.85,South,186,0.0,4.0,87,0.00,,,0.08,Wunderground v.1.15,2013-08-02 03:22:00,
2013-08-01 22:27:00,70.0,66.0,29.85,South,182,0.0,4.0,87,0.00,,,0.08,Wunderground v.1.15,2013-08-02 03:27:00,
2013-08-01 22:32:00,69.9,65.9,29.85,South,182,0.0,1.0,87,0.00,,,0.08,Wunderground v.1.15,2013-08-02 03:32:00,
2013-08-01 22:38:00,69.6,65.9,29.85,South,182,0.0,1.0,88,0.00,,,0.08,Wunderground v.1.15,2013-08-02 03:38:00,
2013-08-01 22:43:00,69.4,65.7,29.85,South,182,0.0,0.0,88,0.00,,,0.08,Wunderground v.1.15,2013-08-02 03:43:00,
2013-08-01 22:49:00,69.2,65.5,29.84,South,182,0.0,0.0,88,0.00,,,0.08,Wunderground v.1.15,2013-08-02 03:49:00,
2013-08-01 22:53:00,69.0,65.3,29.84,South,182,0.0,0.0,88,0.00,,,0.08,Wunderground v.1.15,2013-08-02 03:53:00,
2013-08-01 22:59:00,68.8,65.4,29.84,South,182,0.0,0.0,89,0.00,,,0.08,Wunderground v.1.15,2013-08-02 03:59:00,
2013-08-01 23:01:00,68.8,65.1,29.84,South,182,0.0,0.0,88,0.00,,,0.08,Wunderground v.1.15,2013-08-02 04:01:00,
2013-08-01 23:02:00,68.7,65.0,29.84,South,182,0.0,0.0,88,0.00,,,0.08,Wunderground v.1.15,2013-08-02 04:02:00,
2013-08-01 23:07:00,68.6,65.2,29.84,South,182,0.0,0.0,89,0.00,,,0.08,Wunderground v.1.15,2013-08-02 04:07:00,
2013-08-01 23:12:00,68.3,64.6,29.84,South,182,0.0,0.0,88,0.00,,,0.08,Wunderground v.1.15,2013-08-02 04:12:00,
2013-08-01 23:15:00,68.2,64.8,29.84,South,182,0.0,0.0,89,0.00,,,0.08,Wunderground v.1.15,2013-08-02 04:15:00,
2013-08-01 23:16:00,68.1,64.7,29.83,South,182,0.0,0.0,89,0.00,,,0.08,Wunderground v.1.15,2013-08-02 04:16:00,
2013-08-01 23:21:00,68.1,64.7,29.84,South,182,0.0,0.0,89,0.00,,,0.08,Wunderground v.1.15,2013-08-02 04:21:00,
2013-08-01 23:26:00,67.9,64.5,29.84,South,182,0.0,0.0,89,0.00,,,0.08,Wunderground v.1.15,2013-08-02 04:26:00,
2013-08-01 23:31:00,67.9,64.9,29.84,South,183,0.0,0.0,90,0.00,,,0.08,Wunderground v.1.15,2013-08-02 04:31:00,
2013-08-01 23:36:00,68.0,65.0,29.84,South,183,0.0,0.0,90,0.00,,,0.08,Wunderground v.1.15,2013-08-02 04:36:00,
2013-08-01 23:41:00,68.1,64.7,29.84,South,183,0.0,0.0,89,0.00,,,0.08,Wunderground v.1.15,2013-08-02 04:41:00,
2013-08-01 23:46:00,68.0,64.6,29.84,South,183,0.0,0.0,89,0.00,,,0.08,Wunderground v.1.15,2013-08-02 04:46:00,
2013-08-01 23:51:00,67.9,64.5,29.84,South,183,0.0,0.0,89,0.00,,,0.08,Wunderground v.1.15,2013-08-02 04:51:00,
2013-08-01 23:56:00,67.6,64.2,29.84,South,183,0.0,0.0,89,0.00,,,0.08,Wunderground v.1.15,2013-08-02 04:56:00,